Miscellaneous Local Product
Issued by NWS North Platte, NE

Home | Current Version | Previous Version | Text Only | Print | Product List | Glossary On
Versions: 1 2 3 4 5 6 7 8 9 10 11 12 13 14 15 16 17 18 19 20 21 22 23 24 25 26 27 28 29 30 31 32 33 34 35 36 37 38 39 40 41 42 43 44 45 46 47 48 49 50
000
AXUS43 KLBF 032210
MISLBF


WESTERN AND NORTH CENTRAL NEBRASKA HOURLY WEATHER ROUNDUP
NATIONAL WEATHER SERVICE NORTH PLATTE NE
400 PM CST TUE MAR 03 2015

***STATIONS NOT REPORTING VARIABLES SUCH AS SKY/WEATHER OR
PRESSURE ARE PROVIDED BY THE NEBRASKA DEPARTMENT OF
ROADS...RAWS...AND APRS NETWORKS...AND ARE NOT UNDER
NATIONAL WEATHER SERVICE QUALITY CONTROL***

...OBSERVATIONS IN AND NEAR THE EASTERN PANHANDLE OF NEBRASKA...

CITY           SKY/WX    TMP DP  RH WIND       PRES   REMARKS
PINE RIDGE     PTSUNNY   17   5  59 NE9       29.96F WCI   6
CHADRON        LGT SNOW  17  11  77 E5        29.96F VSB 1   WCI  10
ALLIANCE       CLOUDY    20   9  62 NW9       29.90F WCI   9
SIDNEY         CLOUDY    23   9  55 N10       29.88F WCI  12
WHITECLAY        N/A     17   4  57 NE8         N/A  WCI   7
CRESCENT LAKE    N/A     20   6  53 N9G18       N/A  WCI   9
LISCO            N/A     27   9  47 NW7         N/A  WCI  19
BIG SPRINGS      N/A     28  11  48 N7          N/A  WCI  21
LEWELLEN         N/A     26   2  34 NE12        N/A  WCI  16
$$

...OBSERVATIONS IN NORTH CENTRAL NEBRASKA...

CITY           SKY/WX    TMP DP  RH WIND       PRES   REMARKS
VALENTINE      CLOUDY    20   6  55 NW15G25   30.00R WCI   6
THEDFORD       MOSUNNY   24   7  46 N18G25    29.97S WCI  11
AINSWORTH      MOSUNNY   21   5  50 NW18G26   29.99R WCI   6
O`NEILL        MOSUNNY   24   6  47 NW17G28   30.00R WCI  10
ORD            SUNNY     29   3  33 N21       29.96S WCI  16
BROKEN BOW     SUNNY     29   2  31 N22G31    29.94F WCI  15
BROWNLEE         N/A     19   0  44 N22         N/A  WCI   2
SPRINGVIEW       N/A     20   6  53 NW13G23     N/A  WCI   7
BREWSTER         N/A     29   8  42 SE18        N/A  WCI  16
ROSE             N/A     30  15  54 SW12        N/A  WCI  20
NEWPORT          N/A     28  12  51 NW18        N/A  WCI  15
SARGENT          N/A     27   2  34 NW6G18      N/A  WCI  21
COMSTOCK         N/A     33   5  29 E17         N/A  WCI  23
CHAMBERS         N/A     24   4  43 N10G20      N/A  WCI  14
EWING            N/A     26  11  52 N12G20      N/A  WCI  16
$$

...OBSERVATIONS IN SOUTHWEST NEBRASKA AND FAR NORTHEAST COLORADO...

CITY           SKY/WX    TMP DP  RH WIND       PRES   REMARKS
WRAY           MOCLDY    31  13  45 N9G16     29.90S WCI  23
IMPERIAL         N/A     30   9  41 N13       29.92R WCI  20
OGALLALA       MOSUNNY   27   9  46 N13G20    29.93S WCI  16
NORTH PLATTE   SUNNY     29   5  36 N20G25    29.93F WCI  16
MCCOOK         MOSUNNY   35  11  36 N12G23    29.92S WCI  27
LEXINGTON      SUNNY     32  10  40 N20G25    29.94R WCI  20
PAXTON           N/A     28  12  52 N14         N/A  WCI  17
BRADY            N/A     30  11  45 CALM        N/A
GOTHENBURG       N/A     27   3  35 N13         N/A  WCI  16
CALLAWAY         N/A     27   9  46 N14         N/A  WCI  16
$$

...NORTH PLATTE AREA...

CITY           SKY/WX    TMP DP  RH WIND       PRES   REMARKS
AIRPORT        SUNNY     29   5  36 N20G25    29.93F WCI  16
DOWNTOWN         N/A     27   7  42 N12G18      N/A  WCI  17
$$

...SOME WEATHER OBSERVATIONS FROM AROUND THE REGION...

CITY           SKY/WX    TMP DP  RH WIND       PRES   REMARKS
DENVER         CLOUDY    19  13  77 E5        29.82F WCI  12
LARAMIE        FLURRIES  18  11  74 S21       29.63F WCI   1
CHEYENNE       LGT SNOW  13   4  67 NE7       29.77S WCI   3
SCOTTSBLUFF    CLOUDY    22   9  57 W9        29.92S WCI  12
RAPID CITY     CLOUDY    16   2  54 N25       29.94F WCI  -3
PIERRE         MOSUNNY   20   4  50 NW17G25   30.00F WCI   5
WINNER         FAIR      20   2  45 NW22G31   30.02R WCI   3
SIOUX FALLS    PTSUNNY   15   6  67 NW25G33   29.96R BLWGSNOWWCI  -4
OMAHA          PTSUNNY   32  18  56 N21G32    29.91R WCI  20
GRAND ISLAND   MOSUNNY   31   8  38 N24       29.95S WCI  17
KANSAS CITY    CLOUDY    41  29  62 N12       29.83S
WICHITA        CLOUDY    46  28  49 N10       29.87R
HAYS           CLOUDY    37  16  41 N21       29.88F WCI  27
LIBERAL        PTSUNNY   43  32  65 NE18      29.85S
GOODLAND       PTSUNNY   31  14  49 N16G22    29.87F WCI  20
$$



USA.gov is the U.S. government's official web portal to all federal, state and local government web resources and services.